Weather History for Iron Mountain, MI

Change the Weather History Date:

Friday, January 6, 2012

  Actual Average Record
Temperature  
Mean Temperature 40 °F -  
Max Temperature 46 °F 22 °F 46 °F (2012)
Min Temperature 33 °F 2 °F -19 °F (1986)
Degree Days  
Heating Degree Days 26    
Moisture  
Dew Point 27 °F    
Average Humidity 60    
Maximum Humidity 72    
Minimum Humidity 41    
Precipitation  
Precipitation 0.00 in - - ()
Sea Level Pressure  
Sea Level Pressure 29.56 in    
Wind  
Wind Speed 10 mph (West)    
Max Wind Speed 14 mph    
Max Gust Speed 21 mph    
Visibility 10 miles    
Events      
Averages and records for this station are not official NWS values.
T = Trace of Precipitation, MM = Missing Value Source: NWS Daily Summary

Daily Weather History Graph

Daily Weather History Graph

Search for Another Location

Airport:

Trip Planner

Search our weather history database for the weather conditions in past years. The results will help you decide how hot, cold, wet, or windy it might be!

Date:

Astronomy

Jan. 06, 2012 Rise Set
Actual Time 7:33 AM CST 4:23 PM CST
Civil Twilight 6:59 AM CST 4:57 PM CST
Nautical Twilight 6:21 AM CST 5:34 PM CST
Astronomical Twilight 5:45 AM CST 6:10 PM CST
Moon 2:12 PM CST (1/6) 5:14 AM CST (1/6)
Length of Visible Light 9h 57m
Length of Day
8h 49m
Waxing Gibbous, 93% of the Moon is Illuminated
Jan 6
Waxing Gibbous
Jan 9
Full
Jan 16
Last Quarter
Jan 23
New
Jan 30
First Quarter

Hourly Weather History & Observations

Time (CST) Temp. Windchill Dew Point Humidity Pressure Visibility Wind Dir Wind Speed Gust Speed Precip Events Conditions
12:54 AM 42.1 °F 34.9 °F 28.9 °F 60% 29.43 in 10.0 mi West 13.8 mph - N/A   Clear
2:54 AM 39.9 °F 34.5 °F 28.9 °F 65% 29.46 in 10.0 mi West 8.1 mph - N/A   Clear
3:54 AM 41.0 °F 35.8 °F 28.9 °F 62% 29.46 in 10.0 mi West 8.1 mph - N/A   Clear
4:54 AM 39.9 °F 34.5 °F 28.9 °F 65% 29.47 in 10.0 mi West 8.1 mph - N/A   Clear
5:54 AM 39.9 °F 33.9 °F 30.0 °F 68% 29.49 in 10.0 mi West 9.2 mph - N/A   Clear
6:54 AM 39.9 °F 35.8 °F 28.9 °F 65% 29.52 in 10.0 mi West 5.8 mph - N/A   Clear
7:54 AM 39.0 °F 32.3 °F 28.9 °F 67% 29.52 in 10.0 mi West 10.4 mph - N/A   Clear
8:54 AM 39.9 °F 32.9 °F 28.9 °F 65% 29.55 in 10.0 mi West 11.5 mph - N/A   Clear
9:54 AM 41.0 °F 33.5 °F 28.0 °F 60% 29.56 in 10.0 mi West 13.8 mph 20.7 mph N/A   Clear
10:54 AM 43.0 °F 38.8 °F 28.0 °F 56% 29.55 in 10.0 mi West 6.9 mph 19.6 mph N/A   Clear
11:54 AM 44.1 °F 38.6 °F 27.0 °F 51% 29.54 in 10.0 mi West 10.4 mph 19.6 mph N/A   Clear
12:54 PM 46.0 °F 39.9 °F 26.1 °F 46% 29.53 in 10.0 mi WNW 13.8 mph 19.6 mph N/A   Clear
1:54 PM 46.9 °F - 24.1 °F 41% 29.54 in 10.0 mi West 13.8 mph 20.7 mph N/A   Clear
2:54 PM 46.0 °F 41.4 °F 25.0 °F 44% 29.56 in 10.0 mi West 9.2 mph 19.6 mph N/A   Clear
3:54 PM 45.0 °F 38.9 °F 25.0 °F 46% 29.59 in 10.0 mi West 12.7 mph - N/A   Clear
4:54 PM 42.1 °F 37.1 °F 25.0 °F 51% 29.61 in 10.0 mi West 8.1 mph - N/A   Clear
5:54 PM 39.9 °F 34.5 °F 25.0 °F 55% 29.62 in 10.0 mi WNW 8.1 mph - N/A   Clear
6:54 PM 37.9 °F 32.7 °F 25.0 °F 60% 29.64 in 10.0 mi WNW 6.9 mph - N/A   Clear
7:54 PM 35.1 °F 28.6 °F 26.1 °F 70% 29.65 in 10.0 mi NW 8.1 mph - N/A   Mostly Cloudy
8:54 PM 35.1 °F 30.1 °F 26.1 °F 70% 29.64 in 10.0 mi WNW 5.8 mph - N/A   Overcast
9:54 PM 33.1 °F 30.0 °F 25.0 °F 72% 29.62 in 10.0 mi WSW 3.5 mph - N/A   Partly Cloudy
10:54 PM 33.1 °F 28.7 °F 25.0 °F 72% 29.63 in 10.0 mi West 4.6 mph - N/A   Clear
11:54 PM 33.1 °F 27.7 °F 25.0 °F 72% 29.63 in 10.0 mi West 5.8 mph - N/A   Partly Cloudy